Погода в Центурионе

ЮАР     25°51′27″S   28°10′59″E
темп.,
°C
ветер,
м/с
пор.,
м/с
влажн.,
%
обл.,
%
осадки,
мм/ч
давл.,
гПа
погр.,
м
2 марта, вт
вт223:00+19вюв22460 0.0 1020313
02:00+17в23560 0.0 1020301
05:00+17юв236568 0.0 1020284
08:00+18юв236255 0.0 1021487
11:00+25зюз12344 0.0 10191541
14:00+29з13222 0.0 10152508
17:00+27вюв222767 0.0 10132200
20:00+25ссз113183 0.0 1016636
3 марта, ср
ср323:00+23юз123834 0.0 1017141
02:00+19св235935 0.0 1017298
05:00+17в34700 0.0 1017287
08:00+19всв23630 0.0 1017415
11:00+27в13300 0.0 10141460
14:00+30вюв44180 0.0 10112902
17:00+29вюв44184 0.0 10092669
20:00+26ююв01236 0.0 101270
4 марта, чт
чт423:00+24в472589 0.0 1013450
02:00+20в475466 0.0 1013361
05:00+19всв36610 0.0 1014318
08:00+21св34580 0.0 1014444
11:00+27ссв22320 0.0 10121518
14:00+32ссз12200 0.0 10092904
17:00+30св122156 0.0 10083022
20:00+27ююв232878 0.0 10101138
5 марта, пт
пт523:00+24вюв593799 0.0 1012401
02:00+22ссв354171 0.0 1012426
05:00+21всв474334 0.0 1014386
08:00+21св344343 0.0 1014412
11:00+27ссз32310 0.0 10131299
14:00+29ссз222417 0.0 10112742
17:00+28зюз112699 0.0 10102567
20:00+26з122984 0.0 101239
6 марта, сб
сб623:00+23вюв5104544 0.0 1015396
02:00+23ссв594665 0.0 1016434
05:00+20св475596 0.0 1017451
08:00+21ссв345766 0.0 1018510
11:00+27сз33360 0.0 10161117
14:00+31зсз22232 0.0 10132879
17:00+29юз432582 0.0 10132463
20:00+26ю573385 0.0 1016839